Skip Page Navigation
NASA JPL Caltech
NASA Logo - Jet Propulsion Laboratory + View the NASA Portal
+ Center for Near-Earth Object Studies
JPL Home Earth Solar System Stars & Galaxies Technology
JPL Solar System Dynamics
BODIES ORBITS EPHEMERIDES TOOLS PHYSICAL DATA DISCOVERY FAQ SITE MAP

Significant website upgrade scheduled for September 27. More details available here.

JPL Small-Body Database Browser
Search: [ help ]  
52768 (1998 OR2)
Classification: Apollo [NEO, PHA]          SPK-ID: 2052768
Ephemeris | Orbit Diagram | Orbital Elements | Mission Design | Physical Parameters | Discovery Circumstances | Close-Approach Data ]

[ show orbit diagram ]
Orbital Elements at Epoch 2459396.5 (2021-Jul-01.0) TDB
Reference: JPL 319 (heliocentric ecliptic J2000)
 Element Value Uncertainty (1-sigma)   Units 
e .5736751594860768 3.0214e-09  
a 2.383353768469227 3.3143e-09 au
q 1.016082915230901 6.9661e-09 au
i 5.870364834953635 1.9043e-06 deg
node 26.95326284639391 4.723e-06 deg
peri 174.5685366281179 5.8862e-06 deg
M 118.1492429768585 7.281e-07 deg
tp 2458955.427851029379
(2020-Apr-15.92785103)
2.5677e-06 TDB
period 1343.944062853829
3.68
2.8034e-06
7.675e-09
d
yr
n .2678682915087624 5.5876e-10 deg/d
Q 3.750624621707553 5.2157e-09 au
  Orbit Determination Parameters
   # obs. used (total)      5340  
   # delay obs. used      3  
   # Doppler obs. used      0  
   data-arc span      12491 days (34.20 yr)  
   first obs. used      1987-06-30  
   last obs. used      2021-09-10  
   planetary ephem.      DE441  
   SB-pert. ephem.      SB441-N16  
   condition code      0  
   norm. resid. RMS      .22293  
   source      ORB  
   producer      Otto Matic  
   solution date      2021-Sep-11 06:31:36  

Additional Information
 Earth MOID = .0142947 au 
 Jupiter MOID = 1.20555 au 
 T_jup = 3.286 
[ hide covariance matrix ]
Orbital Elements at Epoch 2458173.5 (2018-Feb-24.0) TDB
Reference: JPL 319 (heliocentric ecliptic J2000)
 Element Value Uncertainty (1-sigma)   Units 
e .5726890897963393 2.9773e-09  
q 1.017005137122744 6.9514e-09 au
tp 2457613.848353096617
(2016-Aug-13.34835310)
3.779e-06 TDB
node 27.0658257318708 4.7134e-06 deg
peri 174.4536982745244 5.8855e-06 deg
i 5.879243240977534 1.9039e-06 deg
  Orbit Determination Parameters
   # obs. used (total)      5340  
   # delay obs. used      3  
   # Doppler obs. used      0  
   data-arc span      12491 days (34.20 yr)  
   first obs. used      1987-06-30  
   last obs. used      2021-09-10  
   planetary ephem.      DE441  
   SB-pert. ephem.      SB441-N16  
   condition code      0  
   norm. resid. RMS      .22293  
   source      ORB  
   producer      Otto Matic  
   solution date      2021-Sep-11 06:31:36  

Additional Information
 Jupiter MOID = 1.20555 au 
 T_jup = 3.286 
Orbit Covariance (6×6)
  e q tp node peri i
e 8.864301012879063E-18 -2.02873622297368E-17 -3.25387634692247E-15 -4.561312740235109E-15 2.120366344534696E-15 2.839124348205118E-16
q -2.02873622297368E-17 4.832164654464198E-17 3.900995082952471E-15 1.090746366037918E-14 -5.048232750114659E-15 -5.614086940483175E-16
tp -3.25387634692247E-15 3.900995082952471E-15 1.428051303328739E-11 -1.334618585354831E-12 9.345427383132416E-12 -1.302233555504275E-13
node -4.561312740235109E-15 1.090746366037918E-14 -1.334618585354831E-12 2.221616582034676E-11 -2.355090709355773E-11 4.036872908880665E-14
peri 2.120366344534696E-15 -5.048232750114659E-15 9.345427383132416E-12 -2.355090709355773E-11 3.463869657015704E-11 7.062407380355737E-14
i 2.839124348205118E-16 -5.614086940483175E-16 -1.302233555504275E-13 4.036872908880665E-14 7.062407380355737E-14 3.625009327293651E-12

Ephemeris | Orbit Diagram | Orbital Elements | Mission Design | Physical Parameters | Discovery Circumstances | Close-Approach Data ]

Physical Parameter Table
Parameter Symbol Value Units Sigma Reference Notes
absolute magnitude H 16.00   n/a E2021B10  
diameter diameter 1.75 km 0.3 Arecibo initial assessment April 16-22, 2020 (S. Marshall, P. Taylor)  
rotation period rot_per 4.1120 h n/a LCDB (Rev. 2020-October); Warner et al., 2009 Published Reference List:
[Koehn, B.W.; Bowell, E.L.G.; Skiff, B.A.; Sanborn, J.J.; et al. (2014) Minor Planet Bull. 41, 286-300.]
[Skiff, B.A.; McLelland, K.P.; Sanborn, J.; Pravec, P.; Koehn, B.W. (2019). Minor Planet Bull. 46, 458-503.]
[Behrend, R. (2020) Observatoire de Geneve web site, http://obswww.unige.ch/~behrend/page_cou.html]
[Franco, L.; Marchini, A.; Saya, L.-F.; Galli, G.; et al. (2020) Minor Planet Bull. 47, 242-246.]
[Observers at Arecibo Observatory (2020). https://www.ucf.edu/news/asteroid-visiting-earths-neighborhood-brin gs-its-own-face-mask/]
[Warner, B.D.; Stephens, R.D. (2020) Minor Planet Bull. 47, 200-213.]
[Warner, B.D.; Stephens, R.D. (2020) Minor Planet Bull. 47, 290-304.]

52768 (1998 OR2)          Discovered 1998-Jul-24 by NEAT at Haleakala
Reference: 20030216/Numbers.arcLast Updated: 2004-04-19

